AZG79B UBBB-EFHK

Flight info

Callsign AZG79B
Flight time 5h 5m
Altitude 36000
Route AGDAM M747 LUSAL M11 REBLO UM11 CRM UL746 ODERO DCT LUGEB DCT LAPKA DCT KENIN/N0475F380 DCT TOXAR/N0481F370 DCT BOKSU DCT INBOV DCT GUNTA DCT SOKVA DCT ANAMA DCT KEMET Q11 INTOR
Aircraft B77L/H-SDE1E2E3FGHIJ2J3J4J5M1RWXY/LB1D1

Departure

Time 2026-04-26 16:36
Airport Heydar Aliyev International Airport (UBBB)

Arrival

Time 2026-04-26 21:41
Airport Helsinki Vantaa Airport (EFHK)
Time Latitude Longitude Altitude Speed Heading
2026-04-26 16:05 40.45983 50.05846 13 ft 0 kts 268°
2026-04-26 16:12 40.45984 50.05906 13 ft 2 kts 276°
2026-04-26 16:13 40.45980 50.05926 13 ft 2 kts 290°
2026-04-26 16:13 40.45971 50.05944 17 ft 2 kts 319°
2026-04-26 16:13 40.45962 50.05953 13 ft 2 kts 331°
2026-04-26 16:13 40.45952 50.05959 14 ft 2 kts 345°
2026-04-26 16:14 40.45941 50.05961 15 ft 2 kts 356°
2026-04-26 16:14 40.45940 50.05962 14 ft 0 kts 357°
2026-04-26 16:17 40.45950 50.05961 13 ft 3 kts 358°
2026-04-26 16:17 40.45989 50.05960 13 ft 8 kts 359°
2026-04-26 16:18 40.46057 50.05958 13 ft 12 kts 359°
2026-04-26 16:18 40.46269 50.05957 13 ft 16 kts
2026-04-26 16:19 40.46527 50.05954 13 ft 17 kts
2026-04-26 16:19 40.46591 50.06058 13 ft 6 kts 59°
2026-04-26 16:19 40.46677 50.06091 13 ft 11 kts
2026-04-26 16:20 40.46803 50.06090 13 ft 16 kts 360°
2026-04-26 16:20 40.47077 50.06086 13 ft 23 kts 359°
2026-04-26 16:20 40.47216 50.06083 13 ft 19 kts 359°
2026-04-26 16:21 40.47358 50.06081 13 ft 18 kts 359°
2026-04-26 16:21 40.47446 50.06080 13 ft 9 kts 359°
2026-04-26 16:21 40.47470 50.06079 13 ft 0 kts 359°
2026-04-26 16:25 40.47476 50.06079 13 ft 3 kts 359°
2026-04-26 16:25 40.47507 50.06079 13 ft 7 kts
2026-04-26 16:25 40.47566 50.06080 13 ft 10 kts 360°
2026-04-26 16:26 40.47652 50.06079 13 ft 14 kts 359°
2026-04-26 16:26 40.47723 50.06078 13 ft 17 kts 359°
2026-04-26 16:26 40.47897 50.06074 13 ft 18 kts 359°
2026-04-26 16:26 40.48038 50.06071 13 ft 22 kts 359°
2026-04-26 16:27 40.48140 50.06069 13 ft 14 kts 359°
2026-04-26 16:27 40.48252 50.06068 13 ft 18 kts 359°
2026-04-26 16:27 40.48364 50.06067 13 ft 13 kts
2026-04-26 16:27 40.48453 50.06070 13 ft 10 kts
2026-04-26 16:28 40.48460 50.06072 13 ft 0 kts 13°
2026-04-26 16:31 40.48469 50.06075 13 ft 3 kts 17°
2026-04-26 16:32 40.48496 50.06102 13 ft 6 kts 54°
2026-04-26 16:32 40.48502 50.06131 13 ft 0 kts 83°
2026-04-26 16:33 40.48502 50.06135 13 ft 2 kts 83°
2026-04-26 16:33 40.48503 50.06170 13 ft 6 kts 90°
2026-04-26 16:33 40.48491 50.06239 15 ft 10 kts 118°
2026-04-26 16:33 40.48426 50.06281 12 ft 12 kts 178°
2026-04-26 16:34 40.48416 50.06282 12 ft 0 kts 178°
2026-04-26 16:34 40.48415 50.06282 12 ft 0 kts 178°
2026-04-26 16:35 40.48219 50.06288 14 ft 76 kts 179°
2026-04-26 16:35 40.47340 50.06305 45 ft 171 kts 179°
2026-04-26 16:36 40.46027 50.06326 615 ft 198 kts 180°
2026-04-26 16:36 40.44587 50.06341 1513 ft 214 kts 181°
2026-04-26 16:36 40.43082 50.06365 2781 ft 218 kts 182°
2026-04-26 16:36 40.41535 50.06388 3593 ft 228 kts 180°
2026-04-26 16:37 40.39917 50.06415 4410 ft 237 kts 181°
2026-04-26 16:37 40.38234 50.06441 5167 ft 247 kts 182°
2026-04-26 16:37 40.36551 50.05935 5786 ft 256 kts 210°
2026-04-26 16:37 40.35544 50.05099 6243 ft 261 kts 214°
2026-04-26 16:38 40.33493 50.03328 7342 ft 262 kts 214°
2026-04-26 16:38 40.31952 50.02021 7775 ft 266 kts 214°
2026-04-26 16:38 40.30388 50.00696 7809 ft 269 kts 214°
2026-04-26 16:38 40.29068 49.99137 7806 ft 268 kts 237°
2026-04-26 16:39 40.28347 49.96887 7821 ft 270 kts 258°
2026-04-26 16:39 40.28202 49.94433 7824 ft 270 kts 266°
2026-04-26 16:39 40.28158 49.91975 7821 ft 270 kts 267°
2026-04-26 16:39 40.28119 49.89518 7824 ft 269 kts 267°
2026-04-26 16:40 40.28077 49.87099 7821 ft 269 kts 267°
2026-04-26 16:40 40.28031 49.84652 7815 ft 269 kts 267°
2026-04-26 16:40 40.27982 49.82209 7824 ft 268 kts 267°
2026-04-26 16:40 40.27929 49.79774 7818 ft 268 kts 266°
2026-04-26 16:41 40.27874 49.77341 7820 ft 267 kts 266°
2026-04-26 16:41 40.27818 49.74905 7825 ft 267 kts 266°
2026-04-26 16:41 40.27760 49.72473 7825 ft 267 kts 266°
2026-04-26 16:41 40.27701 49.70036 7867 ft 268 kts 266°
2026-04-26 16:42 40.27661 49.68406 8338 ft 261 kts 266°
2026-04-26 16:42 40.27602 49.66049 9322 ft 264 kts 266°
2026-04-26 16:42 40.27540 49.63617 10145 ft 270 kts 266°
2026-04-26 16:42 40.27476 49.61094 10770 ft 286 kts 266°
2026-04-26 16:43 40.27404 49.58367 10982 ft 315 kts 267°
2026-04-26 16:43 40.27327 49.55375 11215 ft 343 kts 267°
2026-04-26 16:43 40.27245 49.52180 11785 ft 357 kts 267°
2026-04-26 16:43 40.27160 49.48891 12605 ft 362 kts 267°
2026-04-26 16:44 40.27072 49.45569 13100 ft 368 kts 267°
2026-04-26 16:44 40.26981 49.42194 13069 ft 371 kts 267°
2026-04-26 16:44 40.26886 49.38822 13082 ft 370 kts 267°
2026-04-26 16:44 40.26790 49.35457 13081 ft 369 kts 267°
2026-04-26 16:45 40.26693 49.32093 13107 ft 370 kts 267°
2026-04-26 16:45 40.26595 49.28715 13315 ft 372 kts 267°
2026-04-26 16:45 40.26495 49.25313 14183 ft 376 kts 267°
2026-04-26 16:45 40.26494 49.21895 14985 ft 378 kts 274°
2026-04-26 16:46 40.26852 49.18459 15756 ft 383 kts 279°
2026-04-26 16:46 40.27392 49.15018 16503 ft 390 kts 284°
2026-04-26 16:46 40.28194 49.11602 17289 ft 394 kts 287°
2026-04-26 16:46 40.29094 49.08181 18084 ft 399 kts 288°
2026-04-26 16:47 40.30014 49.04783 18800 ft 403 kts 289°
2026-04-26 16:47 40.30959 49.01296 19459 ft 408 kts 288°
2026-04-26 16:47 40.31868 48.97911 20099 ft 412 kts 288°
2026-04-26 16:47 40.32819 48.94335 20718 ft 418 kts 288°
2026-04-26 16:48 40.33774 48.90714 21366 ft 422 kts 287°
2026-04-26 16:48 40.34733 48.87052 22032 ft 426 kts 287°
2026-04-26 16:48 40.35546 48.83308 22661 ft 429 kts 280°
2026-04-26 16:48 40.36097 48.79443 23292 ft 433 kts 278°
2026-04-26 16:49 40.36617 48.75538 23872 ft 437 kts 278°
2026-04-26 16:49 40.37138 48.71595 24438 ft 440 kts 278°
2026-04-26 16:49 40.37662 48.67649 25024 ft 443 kts 278°
2026-04-26 16:49 40.38200 48.63639 25593 ft 445 kts 278°
2026-04-26 16:50 40.38744 48.59627 26141 ft 448 kts 278°
2026-04-26 16:50 40.39295 48.55582 26666 ft 451 kts 278°
2026-04-26 16:50 40.39850 48.51514 27184 ft 455 kts 278°
2026-04-26 16:50 40.40410 48.47412 27678 ft 458 kts 278°
2026-04-26 16:51 40.40974 48.43276 28135 ft 462 kts 278°
2026-04-26 16:51 40.41539 48.39112 28604 ft 465 kts 278°
2026-04-26 16:51 40.42108 48.34912 29057 ft 469 kts 278°
2026-04-26 16:51 40.42670 48.30750 29472 ft 472 kts 278°
2026-04-26 16:52 40.43244 48.26493 29888 ft 475 kts 278°
2026-04-26 16:52 40.43632 48.23601 30148 ft 476 kts 278°
2026-04-26 16:52 40.44392 48.17926 30712 ft 476 kts 278°
2026-04-26 16:52 40.44960 48.13676 31327 ft 471 kts 278°
2026-04-26 16:53 40.45521 48.09469 32093 ft 463 kts 278°
2026-04-26 16:53 40.46071 48.05331 32766 ft 457 kts 277°
2026-04-26 16:53 40.46615 48.01221 33238 ft 456 kts 277°
2026-04-26 16:53 40.47140 47.97241 33618 ft 456 kts 277°
2026-04-26 16:54 40.47679 47.93136 34043 ft 455 kts 277°
2026-04-26 16:54 40.48214 47.89048 34447 ft 453 kts 277°
2026-04-26 16:54 40.48747 47.84975 34798 ft 452 kts 277°
2026-04-26 16:54 40.49277 47.80905 35109 ft 452 kts 277°
2026-04-26 16:55 40.49806 47.76835 35394 ft 453 kts 277°
2026-04-26 16:55 40.50334 47.72755 35698 ft 452 kts 277°
2026-04-26 16:55 40.50860 47.68685 36008 ft 452 kts 277°
2026-04-26 16:55 40.51388 47.64587 36048 ft 456 kts 277°
2026-04-26 16:56 40.52957 47.52350 36083 ft 451 kts 277°
2026-04-26 16:57 40.53988 47.44252 36088 ft 448 kts 276°
2026-04-26 16:57 40.55519 47.32123 36085 ft 448 kts 276°
2026-04-26 16:58 40.56362 47.25403 36080 ft 448 kts 276°
2026-04-26 16:59 40.58047 47.11872 36079 ft 450 kts 276°
2026-04-26 17:00 40.60033 46.95751 36091 ft 451 kts 276°
2026-04-26 17:00 40.61520 46.83553 36093 ft 452 kts 276°
2026-04-26 17:01 40.62509 46.75382 36085 ft 452 kts 276°
2026-04-26 17:01 40.63492 46.67203 36080 ft 452 kts 276°
2026-04-26 17:02 40.64468 46.59029 36087 ft 452 kts 275°
2026-04-26 17:02 40.65440 46.50852 36073 ft 452 kts 275°
2026-04-26 17:03 40.66407 46.42671 36077 ft 452 kts 275°
2026-04-26 17:03 40.67365 46.34501 36075 ft 451 kts 275°
2026-04-26 17:04 40.68318 46.26317 36077 ft 451 kts 275°
2026-04-26 17:04 40.69266 46.18135 36074 ft 452 kts 275°
2026-04-26 17:05 40.70208 46.09945 36080 ft 452 kts 275°
2026-04-26 17:05 40.71141 46.01782 36067 ft 453 kts 275°
2026-04-26 17:06 40.72060 45.93688 36060 ft 453 kts 275°
2026-04-26 17:06 40.72990 45.85456 36059 ft 453 kts 275°
2026-04-26 17:07 40.73914 45.77214 36070 ft 454 kts 275°
2026-04-26 17:07 40.74833 45.68963 36073 ft 455 kts 275°
2026-04-26 17:08 40.75742 45.60747 36056 ft 456 kts 275°
2026-04-26 17:08 40.76653 45.52473 36062 ft 456 kts 275°
2026-04-26 17:09 40.77172 45.45520 36088 ft 454 kts 271°
2026-04-26 17:09 40.77592 45.35855 36079 ft 454 kts 270°
2026-04-26 17:10 40.77944 45.27514 36070 ft 455 kts 270°
2026-04-26 17:10 40.78306 45.19164 36072 ft 456 kts 270°
2026-04-26 17:11 40.78671 45.10814 36067 ft 456 kts 271°
2026-04-26 17:11 40.79032 45.02461 36078 ft 456 kts 271°
2026-04-26 17:12 40.79555 44.90047 36067 ft 456 kts 270°
2026-04-26 17:13 40.80064 44.77606 36066 ft 454 kts 270°
2026-04-26 17:14 40.80562 44.65158 36077 ft 452 kts 270°
2026-04-26 17:14 40.81044 44.52738 36080 ft 452 kts 270°
2026-04-26 17:15 40.81514 44.40316 36088 ft 451 kts 270°
2026-04-26 17:16 40.81819 44.32039 36089 ft 452 kts 270°
2026-04-26 17:16 40.82119 44.23735 36102 ft 453 kts 270°
2026-04-26 17:17 40.82413 44.15417 36108 ft 454 kts 270°
2026-04-26 17:17 40.82704 44.07076 36108 ft 455 kts 270°
2026-04-26 17:18 40.82983 43.98859 36109 ft 455 kts 270°
2026-04-26 17:18 40.83262 43.90502 36102 ft 456 kts 270°
2026-04-26 17:19 40.83678 43.77941 36103 ft 457 kts 270°
2026-04-26 17:19 40.83965 43.69554 36107 ft 457 kts 270°
2026-04-26 17:20 40.84196 43.64013 36102 ft 457 kts 271°
2026-04-26 17:20 40.84842 43.52870 36098 ft 457 kts 272°
2026-04-26 17:21 40.85330 43.44516 36102 ft 456 kts 272°
2026-04-26 17:21 40.85795 43.36152 36091 ft 456 kts 272°
2026-04-26 17:22 40.86244 43.27802 36095 ft 456 kts 271°
2026-04-26 17:22 40.86686 43.19450 36096 ft 456 kts 271°
2026-04-26 17:23 40.87121 43.11100 36092 ft 456 kts 271°
2026-04-26 17:23 40.87551 43.02748 36087 ft 456 kts 271°
2026-04-26 17:24 40.87970 42.94497 36087 ft 456 kts 271°
2026-04-26 17:24 40.88390 42.86129 36092 ft 456 kts 271°
2026-04-26 17:25 40.88803 42.77759 36076 ft 456 kts 271°
2026-04-26 17:25 40.89210 42.69387 36073 ft 456 kts 271°
2026-04-26 17:26 40.89610 42.61029 36070 ft 456 kts 271°
2026-04-26 17:26 40.90004 42.52670 36062 ft 456 kts 271°
2026-04-26 17:27 40.90392 42.44313 36070 ft 456 kts 271°
2026-04-26 17:27 40.90713 42.37306 36051 ft 455 kts 271°
2026-04-26 17:28 40.91087 42.29010 36049 ft 455 kts 271°
2026-04-26 17:28 40.91460 42.20596 36048 ft 456 kts 271°
2026-04-26 17:29 40.91764 42.13644 36039 ft 456 kts 271°
2026-04-26 17:29 40.92185 42.03856 36034 ft 456 kts 271°
2026-04-26 17:30 40.92531 41.95641 36023 ft 456 kts 271°
2026-04-26 17:30 40.92879 41.87270 36025 ft 456 kts 271°
2026-04-26 17:31 40.93222 41.78836 36018 ft 456 kts 271°
2026-04-26 17:31 40.93555 41.70518 36004 ft 456 kts 271°
2026-04-26 17:32 40.93885 41.62139 36026 ft 456 kts 271°
2026-04-26 17:32 40.94208 41.53744 36004 ft 457 kts 271°
2026-04-26 17:33 40.94526 41.45353 36004 ft 456 kts 270°
2026-04-26 17:34 40.94989 41.32797 36011 ft 456 kts 270°
2026-04-26 17:34 40.95291 41.24423 36024 ft 455 kts 270°
2026-04-26 17:35 40.95586 41.16048 36010 ft 456 kts 270°
2026-04-26 17:35 40.95877 41.07652 35976 ft 456 kts 270°
2026-04-26 17:36 40.96156 40.99415 35979 ft 456 kts 270°
2026-04-26 17:36 40.96435 40.91029 35955 ft 456 kts 270°
2026-04-26 17:37 40.96704 40.82648 35967 ft 456 kts 270°
2026-04-26 17:37 40.96964 40.74256 35953 ft 456 kts 270°
2026-04-26 17:38 40.97345 40.61674 35961 ft 456 kts 270°
2026-04-26 17:38 40.97591 40.53294 35955 ft 456 kts 270°
2026-04-26 17:39 40.97832 40.44907 35962 ft 456 kts 270°
2026-04-26 17:39 40.98066 40.36522 35945 ft 456 kts 270°
2026-04-26 17:40 40.98256 40.29548 35959 ft 456 kts 270°
2026-04-26 17:40 40.98516 40.19821 35951 ft 455 kts 270°
2026-04-26 17:41 40.98732 40.11433 35946 ft 456 kts 270°
2026-04-26 17:41 40.98942 40.03047 35951 ft 456 kts 270°
2026-04-26 17:42 40.99144 39.94787 35941 ft 456 kts 270°
2026-04-26 17:42 40.99344 39.86402 35940 ft 456 kts 270°
2026-04-26 17:43 40.99614 39.78018 35936 ft 457 kts 274°
2026-04-26 17:43 41.00411 39.69675 35941 ft 457 kts 275°
2026-04-26 17:44 41.01245 39.61336 35951 ft 457 kts 275°
2026-04-26 17:44 41.02052 39.52974 35946 ft 458 kts 275°
2026-04-26 17:45 41.02842 39.44606 35952 ft 458 kts 275°
2026-04-26 17:45 41.03624 39.36225 35963 ft 459 kts 275°
2026-04-26 17:46 41.04399 39.27875 35959 ft 459 kts 275°
2026-04-26 17:46 41.05173 39.19468 35961 ft 459 kts 275°
2026-04-26 17:47 41.05812 39.12490 35962 ft 459 kts 275°
2026-04-26 17:47 41.06727 39.02663 35967 ft 459 kts 275°
2026-04-26 17:48 41.07494 38.94412 35964 ft 459 kts 275°
2026-04-26 17:48 41.08261 38.86067 35959 ft 459 kts 275°
2026-04-26 17:49 41.09025 38.77671 35957 ft 459 kts 276°
2026-04-26 17:49 41.09783 38.69276 35952 ft 459 kts 275°
2026-04-26 17:50 41.10485 38.60860 35953 ft 459 kts 275°
2026-04-26 17:50 41.11186 38.52452 35945 ft 459 kts 275°
2026-04-26 17:51 41.11900 38.44025 35947 ft 460 kts 275°
2026-04-26 17:51 41.12607 38.35580 35943 ft 460 kts 275°
2026-04-26 17:52 41.13305 38.27147 35942 ft 460 kts 275°
2026-04-26 17:52 41.13993 38.18696 35941 ft 461 kts 275°
2026-04-26 17:53 41.14671 38.10238 35946 ft 461 kts 275°
2026-04-26 17:54 41.15666 37.97739 35954 ft 461 kts 275°
2026-04-26 17:54 41.16333 37.89272 35955 ft 462 kts 275°
2026-04-26 17:55 41.17046 37.80796 35959 ft 462 kts 276°
2026-04-26 17:55 41.17795 37.72331 35975 ft 462 kts 276°
2026-04-26 17:56 41.18526 37.63865 35969 ft 462 kts 276°
2026-04-26 17:57 41.19571 37.46955 35960 ft 461 kts 275°
2026-04-26 17:57 41.20230 37.38481 35970 ft 461 kts 275°
2026-04-26 17:58 41.21473 37.21521 35977 ft 462 kts 275°
2026-04-26 17:59 41.22475 37.08782 35979 ft 463 kts 276°
2026-04-26 17:59 41.23151 37.00281 35978 ft 463 kts 275°
2026-04-26 18:00 41.23803 36.91921 35977 ft 463 kts 276°
2026-04-26 18:00 41.24458 36.83389 35975 ft 464 kts 275°
2026-04-26 18:01 41.25106 36.74859 35989 ft 464 kts 276°
2026-04-26 18:01 41.25751 36.66309 35996 ft 465 kts 275°
2026-04-26 18:02 41.26174 36.60651 35995 ft 465 kts 276°
2026-04-26 18:02 41.27897 36.49451 35977 ft 465 kts 288°
2026-04-26 18:03 41.30003 36.41312 35977 ft 466 kts 289°
2026-04-26 18:03 41.32119 36.33166 35975 ft 466 kts 288°
2026-04-26 18:04 41.34203 36.25008 35978 ft 466 kts 288°
2026-04-26 18:05 41.37296 36.12748 35977 ft 466 kts 288°
2026-04-26 18:05 41.39347 36.04573 35973 ft 465 kts 288°
2026-04-26 18:06 41.41354 35.96546 35967 ft 465 kts 288°
2026-04-26 18:06 41.43393 35.88375 35965 ft 464 kts 288°
2026-04-26 18:07 41.45405 35.80277 35968 ft 463 kts 288°
2026-04-26 18:07 41.47421 35.72136 35966 ft 462 kts 288°
2026-04-26 18:08 41.49429 35.63999 35963 ft 462 kts 288°
2026-04-26 18:08 41.51431 35.55860 35964 ft 461 kts 288°
2026-04-26 18:09 41.53425 35.47722 35965 ft 461 kts 288°
2026-04-26 18:09 41.55415 35.39574 35969 ft 462 kts 288°
2026-04-26 18:10 41.57399 35.31422 35970 ft 461 kts 288°
2026-04-26 18:10 41.59376 35.23272 35960 ft 461 kts 288°
2026-04-26 18:11 41.61013 35.16501 35965 ft 461 kts 288°
2026-04-26 18:11 41.63294 35.07028 35979 ft 460 kts 288°
2026-04-26 18:12 41.65217 34.99014 35971 ft 460 kts 288°
2026-04-26 18:12 41.67164 34.90871 35976 ft 459 kts 288°
2026-04-26 18:13 41.68776 34.84109 35977 ft 458 kts 288°
2026-04-26 18:13 41.70706 34.75985 35981 ft 458 kts 288°
2026-04-26 18:14 41.72626 34.67874 35988 ft 457 kts 288°
2026-04-26 18:14 41.74538 34.59771 35987 ft 456 kts 287°
2026-04-26 18:15 41.76439 34.51676 35980 ft 456 kts 287°
2026-04-26 18:15 41.78333 34.43580 35985 ft 455 kts 287°
2026-04-26 18:16 41.80219 34.35488 35987 ft 455 kts 287°
2026-04-26 18:16 41.83039 34.23336 35992 ft 455 kts 287°
2026-04-26 18:17 41.84899 34.15283 36001 ft 454 kts 287°
2026-04-26 18:17 41.86763 34.07186 36008 ft 454 kts 287°
2026-04-26 18:18 41.88586 33.99238 35997 ft 454 kts 287°
2026-04-26 18:18 41.90438 33.91135 36004 ft 454 kts 287°
2026-04-26 18:19 41.92281 33.83040 36003 ft 454 kts 287°
2026-04-26 18:19 41.94122 33.74927 35991 ft 453 kts 287°
2026-04-26 18:20 41.95910 33.66808 35999 ft 453 kts 285°
2026-04-26 18:20 41.97217 33.60002 36001 ft 452 kts 284°
2026-04-26 18:21 41.99008 33.50430 35998 ft 452 kts 284°
2026-04-26 18:21 42.00561 33.42264 35990 ft 452 kts 285°
2026-04-26 18:22 42.02124 33.34080 35993 ft 452 kts 285°
2026-04-26 18:22 42.03671 33.25952 35995 ft 452 kts 284°
2026-04-26 18:23 42.05224 33.17755 35987 ft 452 kts 284°
2026-04-26 18:23 42.06770 33.09562 35985 ft 452 kts 284°
2026-04-26 18:24 42.08380 33.01384 35988 ft 452 kts 286°
2026-04-26 18:24 42.10062 32.93306 35991 ft 461 kts 286°
2026-04-26 18:25 42.11800 32.84883 35988 ft 472 kts 285°
2026-04-26 18:25 42.13540 32.76339 35974 ft 473 kts 285°
2026-04-26 18:26 42.15271 32.67788 35973 ft 472 kts 285°
2026-04-26 18:26 42.16991 32.59265 35973 ft 470 kts 285°
2026-04-26 18:27 42.18695 32.50759 35977 ft 469 kts 285°
2026-04-26 18:27 42.20389 32.42267 35978 ft 468 kts 285°
2026-04-26 18:28 42.22060 32.33857 35976 ft 467 kts 285°
2026-04-26 18:28 42.23735 32.25398 35978 ft 466 kts 285°
2026-04-26 18:29 42.25403 32.16943 35976 ft 466 kts 285°
2026-04-26 18:29 42.27070 32.08484 35974 ft 466 kts 285°
2026-04-26 18:30 42.28723 32.00013 35977 ft 467 kts 285°
2026-04-26 18:30 42.30342 31.91671 35974 ft 467 kts 285°
2026-04-26 18:31 42.31985 31.83175 35973 ft 467 kts 285°
2026-04-26 18:31 42.33623 31.74676 35972 ft 467 kts 285°
2026-04-26 18:32 42.35256 31.66162 35961 ft 468 kts 285°
2026-04-26 18:32 42.36883 31.57641 35968 ft 468 kts 285°
2026-04-26 18:33 42.38505 31.49110 35964 ft 469 kts 285°
2026-04-26 18:33 42.40122 31.40568 35964 ft 469 kts 285°
2026-04-26 18:34 42.41706 31.32158 35950 ft 454 kts 285°
2026-04-26 18:34 42.43246 31.23951 35961 ft 453 kts 285°
2026-04-26 18:35 42.44793 31.15676 35960 ft 454 kts 285°
2026-04-26 18:35 42.46337 31.07383 35961 ft 454 kts 285°
2026-04-26 18:36 42.47860 30.99189 35959 ft 455 kts 285°
2026-04-26 18:36 42.49401 30.90865 35960 ft 456 kts 285°
2026-04-26 18:37 42.50937 30.82528 35955 ft 457 kts 285°
2026-04-26 18:37 42.52473 30.74152 35961 ft 457 kts 285°
2026-04-26 18:38 42.53993 30.65830 35957 ft 458 kts 285°
2026-04-26 18:38 42.55517 30.57443 35959 ft 458 kts 285°
2026-04-26 18:39 42.57037 30.49043 35958 ft 459 kts 285°
2026-04-26 18:39 42.58554 30.40624 35960 ft 459 kts 285°
2026-04-26 18:40 42.60092 30.32217 35952 ft 458 kts 288°
2026-04-26 18:40 42.62758 30.24425 35972 ft 456 kts 302°
2026-04-26 18:41 42.66650 30.17667 35976 ft 454 kts 312°
2026-04-26 18:41 42.70905 30.11294 35963 ft 455 kts 312°
2026-04-26 18:42 42.75150 30.04915 35965 ft 455 kts 312°
2026-04-26 18:42 42.79301 29.98591 35960 ft 455 kts 312°
2026-04-26 18:43 42.83500 29.92142 35974 ft 455 kts 312°
2026-04-26 18:43 42.87691 29.85683 35972 ft 455 kts 311°
2026-04-26 18:44 42.91885 29.79208 35993 ft 455 kts 311°
2026-04-26 18:44 42.96068 29.72736 35986 ft 454 kts 311°
2026-04-26 18:45 43.00205 29.66323 35982 ft 452 kts 311°
2026-04-26 18:45 43.04352 29.59880 35985 ft 451 kts 311°
2026-04-26 18:46 43.08481 29.53449 35994 ft 449 kts 311°
2026-04-26 18:46 43.12594 29.47030 35999 ft 448 kts 311°
2026-04-26 18:47 43.16694 29.40618 36003 ft 447 kts 311°
2026-04-26 18:47 43.20784 29.34207 36006 ft 447 kts 311°
2026-04-26 18:48 43.24868 29.27790 36019 ft 446 kts 311°
2026-04-26 18:48 43.28928 29.21397 36019 ft 443 kts 311°
2026-04-26 18:49 43.32932 29.15079 36014 ft 440 kts 311°
2026-04-26 18:49 43.36946 29.08729 36030 ft 439 kts 311°
2026-04-26 18:50 43.40956 29.02377 36036 ft 440 kts 311°
2026-04-26 18:50 43.44903 28.96103 36046 ft 442 kts 311°
2026-04-26 18:51 43.48925 28.89703 36039 ft 443 kts 310°
2026-04-26 18:51 43.52950 28.83284 36052 ft 442 kts 310°
2026-04-26 18:52 43.56956 28.76869 36043 ft 441 kts 310°
2026-04-26 18:52 43.60958 28.70460 36052 ft 441 kts 310°
2026-04-26 18:53 43.64959 28.64033 36050 ft 442 kts 310°
2026-04-26 18:53 43.68968 28.57579 36055 ft 443 kts 310°
2026-04-26 18:54 43.72996 28.51112 36057 ft 444 kts 311°
2026-04-26 18:54 43.77441 28.45170 36052 ft 444 kts 317°
2026-04-26 18:55 43.91075 28.28054 36049 ft 446 kts 316°
2026-04-26 18:55 43.97331 28.20107 36060 ft 446 kts 316°
2026-04-26 18:56 44.01906 28.14277 36065 ft 446 kts 316°
2026-04-26 18:56 44.06473 28.08444 36063 ft 445 kts 316°
2026-04-26 18:57 44.09519 28.04549 36062 ft 444 kts 316°
2026-04-26 18:57 44.15480 27.96907 36064 ft 442 kts 316°
2026-04-26 18:58 44.19234 27.92084 36068 ft 441 kts 316°
2026-04-26 18:58 44.24459 27.85356 36067 ft 439 kts 316°
2026-04-26 18:59 44.28945 27.79565 36078 ft 439 kts 316°
2026-04-26 18:59 44.33430 27.73764 36074 ft 439 kts 316°
2026-04-26 19:00 44.37902 27.67969 36074 ft 438 kts 316°
2026-04-26 19:00 44.41612 27.63150 36080 ft 438 kts 315°
2026-04-26 19:01 44.46068 27.57350 36086 ft 437 kts 315°
2026-04-26 19:01 44.50105 27.52085 36084 ft 436 kts 315°
2026-04-26 19:02 44.52045 27.49551 36087 ft 436 kts 315°
2026-04-26 19:02 44.55764 27.44686 36093 ft 436 kts 315°
2026-04-26 19:03 44.60915 27.37934 36084 ft 436 kts 315°
2026-04-26 19:03 44.65345 27.32114 36100 ft 436 kts 315°
2026-04-26 19:04 44.69771 27.26285 36092 ft 436 kts 315°
2026-04-26 19:04 44.74192 27.20450 36092 ft 435 kts 315°
2026-04-26 19:05 44.80806 27.11698 36093 ft 435 kts 315°
2026-04-26 19:06 44.85208 27.05856 36103 ft 435 kts 315°
2026-04-26 19:06 44.89611 27.00000 36100 ft 435 kts 315°
2026-04-26 19:07 44.93928 26.94247 36099 ft 435 kts 315°
2026-04-26 19:07 44.98329 26.88369 36091 ft 436 kts 314°
2026-04-26 19:08 45.02700 26.82515 36106 ft 437 kts 314°
2026-04-26 19:08 45.07113 26.76593 36105 ft 438 kts 314°
2026-04-26 19:09 45.11542 26.70638 36101 ft 439 kts 314°
2026-04-26 19:09 45.15972 26.64667 36105 ft 440 kts 315°
2026-04-26 19:10 45.20402 26.58683 36109 ft 440 kts 315°
2026-04-26 19:10 45.24841 26.52674 36110 ft 441 kts 315°
2026-04-26 19:11 45.29233 26.46714 36123 ft 425 kts 315°
2026-04-26 19:11 45.31343 26.43849 36102 ft 414 kts 315°
2026-04-26 19:11 45.33429 26.41012 36096 ft 415 kts 315°
2026-04-26 19:12 45.37621 26.35295 36111 ft 426 kts 315°
2026-04-26 19:12 45.41912 26.29433 36102 ft 427 kts 315°
2026-04-26 19:13 45.46191 26.23576 36120 ft 427 kts 315°
2026-04-26 19:13 45.50467 26.17711 36118 ft 427 kts 315°
2026-04-26 19:14 45.54742 26.11833 36118 ft 428 kts 314°
2026-04-26 19:14 45.59046 26.05900 36126 ft 431 kts 314°
2026-04-26 19:15 45.63341 25.99968 36140 ft 434 kts 313°
2026-04-26 19:15 45.67602 25.94068 36140 ft 435 kts 313°
2026-04-26 19:16 45.71951 25.88035 36139 ft 436 kts 312°
2026-04-26 19:16 45.76311 25.81972 36132 ft 437 kts 312°
2026-04-26 19:17 45.80664 25.75906 36139 ft 436 kts 312°
2026-04-26 19:17 45.85004 25.69843 36141 ft 435 kts 312°
2026-04-26 19:18 45.89313 25.63810 36129 ft 435 kts 312°
2026-04-26 19:18 45.93636 25.57743 36139 ft 435 kts 312°
2026-04-26 19:19 45.97960 25.51660 36152 ft 435 kts 312°
2026-04-26 19:19 46.02276 25.45575 36171 ft 436 kts 312°
2026-04-26 19:20 46.06605 25.39457 36165 ft 436 kts 312°
2026-04-26 19:20 46.10931 25.33330 36171 ft 436 kts 312°
2026-04-26 19:21 46.15255 25.27191 36179 ft 436 kts 312°
2026-04-26 19:21 46.19576 25.21041 36184 ft 436 kts 312°
2026-04-26 19:22 46.23899 25.14876 36196 ft 437 kts 312°
2026-04-26 19:22 46.28215 25.08704 36189 ft 436 kts 312°
2026-04-26 19:23 46.32517 25.02539 36193 ft 435 kts 312°
2026-04-26 19:23 46.36732 24.96486 36200 ft 433 kts 312°
2026-04-26 19:24 46.41004 24.90334 36196 ft 433 kts 312°
2026-04-26 19:24 46.47403 24.81093 36193 ft 432 kts 312°
2026-04-26 19:25 46.50933 24.75982 36196 ft 431 kts 312°
2026-04-26 19:25 46.55888 24.68791 36191 ft 431 kts 312°
2026-04-26 19:26 46.60121 24.62631 36208 ft 430 kts 313°
2026-04-26 19:26 46.64339 24.56481 36184 ft 428 kts 312°
2026-04-26 19:27 46.68504 24.50393 36205 ft 426 kts 312°
2026-04-26 19:27 46.72677 24.44278 36190 ft 425 kts 312°
2026-04-26 19:28 46.76870 24.38119 36216 ft 425 kts 312°
2026-04-26 19:28 46.81028 24.31998 36199 ft 425 kts 312°
2026-04-26 19:29 46.85166 24.25892 36220 ft 426 kts 312°
2026-04-26 19:29 46.89335 24.19727 36223 ft 427 kts 312°
2026-04-26 19:30 46.93505 24.13545 36220 ft 428 kts 312°
2026-04-26 19:30 46.96979 24.08384 36215 ft 428 kts 312°
2026-04-26 19:31 47.01850 24.01130 36208 ft 428 kts 311°
2026-04-26 19:31 47.05951 23.95006 36219 ft 428 kts 311°
2026-04-26 19:32 47.10128 23.88756 36214 ft 429 kts 311°
2026-04-26 19:32 47.14307 23.82490 36229 ft 429 kts 311°
2026-04-26 19:33 47.18482 23.76210 36225 ft 430 kts 311°
2026-04-26 19:33 47.22659 23.69914 36238 ft 430 kts 311°
2026-04-26 19:34 47.26814 23.63635 36237 ft 431 kts 311°
2026-04-26 19:34 47.30989 23.57315 36236 ft 430 kts 311°
2026-04-26 19:35 47.35156 23.50988 36230 ft 430 kts 311°
2026-04-26 19:35 47.39319 23.44651 36228 ft 430 kts 311°
2026-04-26 19:36 47.42098 23.40413 36231 ft 429 kts 311°
2026-04-26 19:36 47.47622 23.31971 36226 ft 429 kts 311°
2026-04-26 19:37 47.51770 23.25612 36235 ft 429 kts 311°
2026-04-26 19:37 47.55913 23.19245 36236 ft 429 kts 311°
2026-04-26 19:38 47.60054 23.12865 36257 ft 430 kts 311°
2026-04-26 19:38 47.64197 23.06468 36236 ft 430 kts 311°
2026-04-26 19:39 47.68334 23.00064 36231 ft 430 kts 311°
2026-04-26 19:39 47.72391 22.93770 36230 ft 429 kts 311°
2026-04-26 19:40 47.76513 22.87358 36226 ft 429 kts 311°
2026-04-26 19:40 47.80632 22.80934 36232 ft 429 kts 311°
2026-04-26 19:41 47.84753 22.74492 36235 ft 429 kts 311°
2026-04-26 19:41 47.87479 22.70222 36234 ft 430 kts 311°
2026-04-26 19:42 47.92959 22.61617 36266 ft 430 kts 311°
2026-04-26 19:42 47.97075 22.55135 36248 ft 431 kts 311°
2026-04-26 19:43 48.01208 22.48609 36534 ft 436 kts 311°
2026-04-26 19:43 48.03289 22.45317 36781 ft 436 kts 311°
2026-04-26 19:43 48.05372 22.42020 36943 ft 436 kts 311°
2026-04-26 19:44 48.09553 22.35386 37137 ft 439 kts 311°
2026-04-26 19:44 48.13754 22.28703 37222 ft 442 kts 311°
2026-04-26 19:45 48.17266 22.23103 37242 ft 444 kts 311°
2026-04-26 19:45 48.21494 22.16346 37234 ft 445 kts 311°
2026-04-26 19:46 48.25730 22.09556 37225 ft 446 kts 311°
2026-04-26 19:46 48.29947 22.02783 37234 ft 439 kts 311°
2026-04-26 19:47 48.33412 21.97492 37211 ft 437 kts 320°
2026-04-26 19:47 48.37046 21.94633 37239 ft 447 kts 337°
2026-04-26 19:47 48.40079 21.93436 37238 ft 455 kts 346°
2026-04-26 19:48 48.43276 21.93285 37240 ft 464 kts 358°
2026-04-26 19:48 48.46506 21.93705 37235 ft 468 kts 360°
2026-04-26 19:48 48.52967 21.94732 37271 ft 472 kts
2026-04-26 19:49 48.59485 21.95735 37226 ft 464 kts 360°
2026-04-26 19:49 48.65599 21.96601 37219 ft 451 kts 359°
2026-04-26 19:49 48.71838 21.97431 37242 ft 449 kts 359°
2026-04-26 19:50 48.82894 21.98895 37252 ft 448 kts 359°
2026-04-26 19:50 48.89100 21.99726 37249 ft 447 kts 359°
2026-04-26 19:51 48.95298 22.00560 37237 ft 447 kts 359°
2026-04-26 19:51 49.01466 22.01392 37250 ft 446 kts 359°
2026-04-26 19:52 49.07653 22.02230 37249 ft 446 kts 359°
2026-04-26 19:52 49.13847 22.03069 37252 ft 447 kts 359°
2026-04-26 19:53 49.20048 22.03911 37276 ft 447 kts 359°
2026-04-26 19:53 49.26252 22.04758 37250 ft 447 kts 359°
2026-04-26 19:54 49.32436 22.05614 37256 ft 446 kts 359°
2026-04-26 19:54 49.38612 22.06692 37245 ft 446 kts
2026-04-26 19:55 49.44781 22.07856 37278 ft 446 kts
2026-04-26 19:55 49.50943 22.09003 37256 ft 446 kts 360°
2026-04-26 19:56 49.57064 22.10125 37251 ft 446 kts 360°
2026-04-26 19:56 49.63219 22.11247 37245 ft 445 kts 360°
2026-04-26 19:57 49.69381 22.12370 37261 ft 446 kts 360°
2026-04-26 19:57 49.75548 22.13498 37252 ft 446 kts 360°
2026-04-26 19:58 49.81720 22.14632 37252 ft 446 kts 360°
2026-04-26 19:58 49.87898 22.15768 37257 ft 446 kts 360°
2026-04-26 19:59 49.94069 22.16906 37238 ft 447 kts 360°
2026-04-26 19:59 50.00210 22.18044 37235 ft 445 kts 360°
2026-04-26 20:00 50.06358 22.19185 37230 ft 444 kts 360°
2026-04-26 20:00 50.12486 22.20325 37232 ft 443 kts 360°
2026-04-26 20:01 50.18601 22.21466 37250 ft 442 kts 360°
2026-04-26 20:01 50.24655 22.22598 37240 ft 440 kts 360°
2026-04-26 20:02 50.30732 22.23736 37248 ft 439 kts 360°
2026-04-26 20:02 50.35812 22.24690 37250 ft 438 kts 360°
2026-04-26 20:03 50.42855 22.26015 37241 ft 438 kts 360°
2026-04-26 20:03 50.48908 22.27158 37246 ft 438 kts 360°
2026-04-26 20:04 50.54966 22.28304 37261 ft 439 kts
2026-04-26 20:04 50.61032 22.29455 37302 ft 439 kts
2026-04-26 20:05 50.67117 22.30613 37263 ft 440 kts
2026-04-26 20:05 50.73203 22.31775 37253 ft 440 kts
2026-04-26 20:06 50.79279 22.32938 37254 ft 440 kts
2026-04-26 20:06 50.85348 22.34102 37296 ft 439 kts
2026-04-26 20:07 50.91421 22.35271 37255 ft 438 kts
2026-04-26 20:07 50.97425 22.36430 37254 ft 437 kts
2026-04-26 20:08 51.03437 22.37593 37252 ft 436 kts
2026-04-26 20:08 51.09457 22.38759 37292 ft 435 kts
2026-04-26 20:09 51.15466 22.39926 37262 ft 435 kts
2026-04-26 20:09 51.21460 22.41094 37246 ft 433 kts
2026-04-26 20:10 51.27448 22.42263 37251 ft 433 kts
2026-04-26 20:10 51.33436 22.43435 37255 ft 434 kts
2026-04-26 20:11 51.39441 22.44614 37250 ft 435 kts
2026-04-26 20:12 51.48426 22.46384 37254 ft 436 kts
2026-04-26 20:12 51.54453 22.47576 37255 ft 436 kts
2026-04-26 20:13 51.60483 22.48771 37248 ft 437 kts
2026-04-26 20:13 51.66516 22.49971 37251 ft 436 kts
2026-04-26 20:14 51.72543 22.51173 37247 ft 436 kts
2026-04-26 20:14 51.78550 22.52374 37244 ft 435 kts
2026-04-26 20:15 51.84551 22.53576 37255 ft 434 kts
2026-04-26 20:15 51.90545 22.54781 37244 ft 433 kts
2026-04-26 20:16 51.96522 22.55985 37235 ft 432 kts
2026-04-26 20:16 52.02469 22.57186 37235 ft 431 kts
2026-04-26 20:17 52.08436 22.58393 37253 ft 433 kts
2026-04-26 20:17 52.14418 22.59606 37242 ft 433 kts
2026-04-26 20:18 52.20399 22.60825 37238 ft 433 kts
2026-04-26 20:18 52.26392 22.62048 37231 ft 434 kts
2026-04-26 20:19 52.32383 22.63275 37262 ft 434 kts
2026-04-26 20:19 52.38345 22.64499 37226 ft 434 kts
2026-04-26 20:20 52.44338 22.65734 37222 ft 434 kts
2026-04-26 20:20 52.50329 22.66971 37227 ft 434 kts
2026-04-26 20:21 52.56316 22.68210 37269 ft 433 kts
2026-04-26 20:21 52.62306 22.69453 37237 ft 434 kts
2026-04-26 20:22 52.68293 22.70700 37219 ft 433 kts
2026-04-26 20:22 52.74278 22.71949 37226 ft 432 kts
2026-04-26 20:23 52.80244 22.73198 37192 ft 432 kts
2026-04-26 20:23 52.86206 22.74449 37222 ft 432 kts
2026-04-26 20:24 52.92168 22.75703 37224 ft 432 kts
2026-04-26 20:24 52.98134 22.76962 37214 ft 432 kts
2026-04-26 20:25 53.04079 22.78220 37209 ft 432 kts
2026-04-26 20:25 53.10045 22.79486 37203 ft 433 kts
2026-04-26 20:26 53.16022 22.80758 37209 ft 432 kts
2026-04-26 20:26 53.21985 22.82031 37211 ft 432 kts
2026-04-26 20:27 53.27949 22.83308 37205 ft 432 kts
2026-04-26 20:27 53.33906 22.84586 37224 ft 432 kts
2026-04-26 20:28 53.39877 22.85870 37198 ft 432 kts
2026-04-26 20:28 53.45839 22.87158 37193 ft 432 kts
2026-04-26 20:29 53.50793 22.88230 37192 ft 432 kts
2026-04-26 20:29 53.56754 22.89523 37219 ft 432 kts
2026-04-26 20:30 53.62723 22.90821 37192 ft 432 kts
2026-04-26 20:30 53.68692 22.92124 37173 ft 432 kts
2026-04-26 20:31 53.74611 22.93419 37186 ft 432 kts
2026-04-26 20:31 53.80576 22.94727 37184 ft 432 kts
2026-04-26 20:32 53.86541 22.96040 37182 ft 432 kts
2026-04-26 20:32 53.92508 22.97357 37166 ft 433 kts
2026-04-26 20:33 53.98480 22.98679 37172 ft 433 kts
2026-04-26 20:33 54.04439 23.00001 37173 ft 433 kts
2026-04-26 20:34 54.10307 23.01308 37179 ft 434 kts
2026-04-26 20:34 54.16303 23.02646 37175 ft 435 kts
2026-04-26 20:35 54.22308 23.03991 37163 ft 435 kts
2026-04-26 20:35 54.28318 23.05341 37165 ft 436 kts
2026-04-26 20:36 54.34327 23.06818 37152 ft 437 kts
2026-04-26 20:36 54.40336 23.08677 37157 ft 439 kts
2026-04-26 20:37 54.46357 23.10582 37147 ft 440 kts
2026-04-26 20:37 54.52382 23.12449 37111 ft 439 kts
2026-04-26 20:38 54.58356 23.14280 37136 ft 439 kts
2026-04-26 20:38 54.64373 23.16122 37140 ft 440 kts
2026-04-26 20:39 54.70394 23.17971 37141 ft 439 kts
2026-04-26 20:39 54.76417 23.19829 37134 ft 439 kts
2026-04-26 20:40 54.82439 23.21691 37128 ft 439 kts
2026-04-26 20:40 54.88457 23.23558 37140 ft 440 kts
2026-04-26 20:41 54.94486 23.25434 37128 ft 440 kts
2026-04-26 20:41 55.00507 23.27314 37120 ft 441 kts
2026-04-26 20:42 55.06545 23.29204 37113 ft 441 kts
2026-04-26 20:42 55.12587 23.31102 37111 ft 441 kts
2026-04-26 20:43 55.18598 23.32995 37110 ft 442 kts
2026-04-26 20:43 55.24660 23.34910 37096 ft 443 kts
2026-04-26 20:44 55.30721 23.36832 37102 ft 443 kts
2026-04-26 20:44 55.36783 23.38760 37096 ft 443 kts
2026-04-26 20:45 55.42857 23.40697 37094 ft 444 kts
2026-04-26 20:45 55.48931 23.42778 37092 ft 445 kts
2026-04-26 20:46 55.54992 23.45015 37082 ft 445 kts
2026-04-26 20:46 55.61051 23.47260 37078 ft 444 kts
2026-04-26 20:47 55.67103 23.49484 37099 ft 445 kts
2026-04-26 20:47 55.73171 23.51709 37084 ft 446 kts
2026-04-26 20:48 55.79253 23.53946 37068 ft 446 kts
2026-04-26 20:48 55.85331 23.56190 37074 ft 446 kts
2026-04-26 20:49 55.91411 23.58442 37063 ft 447 kts
2026-04-26 20:49 55.97467 23.60691 37057 ft 448 kts
2026-04-26 20:50 56.03548 23.62959 37049 ft 448 kts
2026-04-26 20:50 56.09639 23.65237 37041 ft 447 kts
2026-04-26 20:51 56.15736 23.67525 37050 ft 447 kts
2026-04-26 20:51 56.21827 23.69817 37050 ft 447 kts
2026-04-26 20:52 56.27911 23.72115 37046 ft 446 kts
2026-04-26 20:52 56.33989 23.74417 37031 ft 446 kts
2026-04-26 20:53 56.40058 23.76674 37035 ft 445 kts
2026-04-26 20:53 56.46144 23.78744 37017 ft 444 kts
2026-04-26 20:54 56.52182 23.80775 37011 ft 444 kts
2026-04-26 20:54 56.58257 23.82845 37015 ft 445 kts
2026-04-26 20:55 56.64337 23.84940 37021 ft 444 kts
2026-04-26 20:55 56.70403 23.87041 37024 ft 444 kts
2026-04-26 20:56 56.76480 23.89151 37023 ft 445 kts
2026-04-26 20:56 56.82573 23.91274 37025 ft 446 kts
2026-04-26 20:57 56.88665 23.93404 37018 ft 446 kts
2026-04-26 20:57 56.94755 23.95540 37021 ft 446 kts
2026-04-26 20:58 57.00830 23.97678 37020 ft 446 kts
2026-04-26 20:58 57.06935 23.99833 36987 ft 446 kts
2026-04-26 20:59 57.12929 24.01957 36983 ft 447 kts
2026-04-26 20:59 57.19029 24.04125 36978 ft 446 kts
2026-04-26 21:00 57.25136 24.06303 36977 ft 446 kts
2026-04-26 21:00 57.31203 24.08473 36981 ft 447 kts
2026-04-26 21:01 57.37315 24.10668 36977 ft 448 kts
2026-04-26 21:01 57.43430 24.12871 36984 ft 448 kts
2026-04-26 21:02 57.49549 24.15083 36972 ft 448 kts
2026-04-26 21:02 57.55671 24.17304 36999 ft 448 kts
2026-04-26 21:03 57.61804 24.19535 36971 ft 449 kts
2026-04-26 21:03 57.67948 24.21779 36969 ft 450 kts
2026-04-26 21:04 57.74102 24.24035 36957 ft 451 kts
2026-04-26 21:04 57.80267 24.26303 36957 ft 451 kts
2026-04-26 21:05 57.86432 24.28578 36966 ft 452 kts
2026-04-26 21:05 57.92615 24.30837 36966 ft 453 kts
2026-04-26 21:06 57.98821 24.32958 36960 ft 453 kts
2026-04-26 21:06 58.05018 24.35062 36959 ft 454 kts
2026-04-26 21:07 58.11231 24.37198 36947 ft 454 kts
2026-04-26 21:07 58.17415 24.39341 36946 ft 455 kts
2026-04-26 21:08 58.23653 24.41512 36939 ft 456 kts
2026-04-26 21:08 58.29904 24.43695 36938 ft 457 kts
2026-04-26 21:09 58.36145 24.45882 36828 ft 453 kts
2026-04-26 21:09 58.39234 24.46968 36330 ft 448 kts
2026-04-26 21:09 58.42283 24.48042 35792 ft 445 kts
2026-04-26 21:09 58.45319 24.49112 35259 ft 441 kts
2026-04-26 21:10 58.48309 24.50169 34814 ft 435 kts
2026-04-26 21:10 58.51265 24.51215 34407 ft 429 kts
2026-04-26 21:10 58.54182 24.52249 33991 ft 423 kts
2026-04-26 21:10 58.57043 24.53264 33496 ft 418 kts
2026-04-26 21:11 58.59886 24.54274 33042 ft 412 kts
2026-04-26 21:11 58.62688 24.55272 32611 ft 406 kts
2026-04-26 21:11 58.65437 24.56252 32247 ft 397 kts
2026-04-26 21:11 58.68128 24.57213 31905 ft 390 kts
2026-04-26 21:12 58.70781 24.58160 31409 ft 387 kts
2026-04-26 21:12 58.73425 24.59106 30904 ft 384 kts
2026-04-26 21:12 58.76034 24.60043 30491 ft 379 kts
2026-04-26 21:12 58.78605 24.60969 30111 ft 373 kts
2026-04-26 21:13 58.81140 24.61883 29671 ft 367 kts
2026-04-26 21:13 58.83637 24.62782 29123 ft 364 kts
2026-04-26 21:13 58.86113 24.63673 28565 ft 360 kts
2026-04-26 21:13 58.88568 24.64559 28039 ft 357 kts
2026-04-26 21:14 58.91000 24.65440 27540 ft 353 kts
2026-04-26 21:14 58.92596 24.66019 27215 ft 351 kts
2026-04-26 21:14 58.95788 24.67176 26574 ft 347 kts
2026-04-26 21:14 58.98148 24.68031 26051 ft 345 kts
2026-04-26 21:15 59.00513 24.68886 25410 ft 348 kts
2026-04-26 21:15 59.02860 24.69737 24984 ft 345 kts
2026-04-26 21:15 59.05202 24.70591 24627 ft 340 kts
2026-04-26 21:15 59.07515 24.71434 24218 ft 337 kts
2026-04-26 21:16 59.09812 24.72273 23777 ft 335 kts
2026-04-26 21:16 59.12090 24.73104 23330 ft 333 kts
2026-04-26 21:16 59.13596 24.73655 22987 ft 331 kts
2026-04-26 21:16 59.15854 24.74481 22473 ft 329 kts
2026-04-26 21:17 59.18099 24.75304 21975 ft 327 kts
2026-04-26 21:17 59.20330 24.76123 21466 ft 326 kts
2026-04-26 21:17 59.22551 24.76939 20975 ft 324 kts
2026-04-26 21:17 59.24764 24.77754 20500 ft 322 kts
2026-04-26 21:18 59.26961 24.78563 20050 ft 320 kts
2026-04-26 21:18 59.29167 24.79376 19904 ft 326 kts
2026-04-26 21:18 59.31394 24.80198 19794 ft 324 kts
2026-04-26 21:18 59.33605 24.81017 19415 ft 322 kts
2026-04-26 21:19 59.35800 24.81832 19027 ft 319 kts
2026-04-26 21:19 59.37968 24.82637 18618 ft 315 kts
2026-04-26 21:19 59.40120 24.83480 18129 ft 315 kts 10°
2026-04-26 21:19 59.42224 24.84713 17592 ft 317 kts 16°
2026-04-26 21:20 59.44260 24.86349 17108 ft 315 kts 19°
2026-04-26 21:20 59.46273 24.88044 16634 ft 313 kts 19°
2026-04-26 21:20 59.48265 24.89718 16168 ft 311 kts 19°
2026-04-26 21:20 59.50249 24.91373 15702 ft 308 kts 18°
2026-04-26 21:21 59.52219 24.93014 15245 ft 307 kts 18°
2026-04-26 21:21 59.54179 24.94645 14739 ft 306 kts 19°
2026-04-26 21:21 59.56149 24.96284 14209 ft 308 kts 19°
2026-04-26 21:21 59.58168 24.97964 13283 ft 323 kts 19°
2026-04-26 21:22 59.60285 24.99726 12626 ft 334 kts 20°
2026-04-26 21:22 59.62352 25.01455 12325 ft 338 kts 20°
2026-04-26 21:22 59.64498 25.03255 12070 ft 341 kts 20°
2026-04-26 21:23 59.68834 25.06902 11918 ft 338 kts 20°
2026-04-26 21:23 59.70994 25.08720 11895 ft 338 kts 20°
2026-04-26 21:23 59.73163 25.10548 11894 ft 339 kts 20°
2026-04-26 21:23 59.75335 25.12380 11888 ft 339 kts 20°
2026-04-26 21:24 59.77463 25.14180 11873 ft 326 kts 20°
2026-04-26 21:24 59.79476 25.15888 11877 ft 310 kts 20°
2026-04-26 21:24 59.81417 25.17533 11885 ft 302 kts 20°
2026-04-26 21:24 59.83363 25.19178 11897 ft 305 kts 20°
2026-04-26 21:25 59.85310 25.20826 11893 ft 303 kts 20°
2026-04-26 21:25 59.87243 25.22466 11893 ft 302 kts 20°
2026-04-26 21:25 59.89172 25.24102 11890 ft 298 kts 19°
2026-04-26 21:25 59.91150 25.25074 11887 ft 295 kts
2026-04-26 21:26 59.93211 25.24899 11886 ft 296 kts 355°
2026-04-26 21:26 59.95265 25.24580 11550 ft 296 kts 355°
2026-04-26 21:26 59.97307 25.24261 11192 ft 292 kts 355°
2026-04-26 21:26 59.99296 25.23956 10770 ft 288 kts 355°
2026-04-26 21:27 60.01279 25.23658 10362 ft 285 kts 355°
2026-04-26 21:27 60.03230 25.23371 10066 ft 278 kts 355°
2026-04-26 21:27 60.05135 25.23094 9796 ft 270 kts 355°
2026-04-26 21:27 60.06007 25.22968 9639 ft 268 kts 355°
2026-04-26 21:28 60.07018 25.22822 9388 ft 267 kts 355°
2026-04-26 21:28 60.08858 25.22558 8932 ft 265 kts 355°
2026-04-26 21:28 60.09609 25.22451 8744 ft 265 kts 355°
2026-04-26 21:28 60.10312 25.22350 8570 ft 264 kts 355°
2026-04-26 21:29 60.11463 25.22184 8290 ft 263 kts 356°
2026-04-26 21:29 60.12473 25.22039 8051 ft 263 kts 356°
2026-04-26 21:30 60.14316 25.21775 7915 ft 269 kts 356°
2026-04-26 21:30 60.16179 25.21509 7893 ft 267 kts 356°
2026-04-26 21:30 60.18016 25.21246 7767 ft 264 kts 356°
2026-04-26 21:30 60.19841 25.20984 7449 ft 260 kts 356°
2026-04-26 21:31 60.21642 25.20725 7011 ft 259 kts 356°
2026-04-26 21:31 60.23439 25.20467 6541 ft 259 kts 356°
2026-04-26 21:31 60.25229 25.20210 6141 ft 256 kts 356°
2026-04-26 21:31 60.26968 25.19959 5971 ft 244 kts 356°
2026-04-26 21:32 60.28608 25.19723 5734 ft 235 kts 356°
2026-04-26 21:32 60.30210 25.19534 5438 ft 227 kts
2026-04-26 21:32 60.31254 25.19967 5066 ft 230 kts 21°
2026-04-26 21:32 60.32180 25.21010 4806 ft 232 kts 33°
2026-04-26 21:33 60.32605 25.21707 4696 ft 233 kts 39°
2026-04-26 21:33 60.32982 25.22446 4591 ft 233 kts 41°
2026-04-26 21:33 60.35467 25.28028 3848 ft 221 kts 43°
2026-04-26 21:33 60.37043 25.31596 3431 ft 209 kts 43°
2026-04-26 21:34 60.38004 25.33759 3098 ft 205 kts 43°
2026-04-26 21:34 60.38928 25.35866 3036 ft 197 kts 43°
2026-04-26 21:34 60.39908 25.37787 3000 ft 194 kts 25°
2026-04-26 21:34 60.41213 25.38202 2990 ft 195 kts 351°
2026-04-26 21:35 60.42478 25.37176 2974 ft 199 kts 333°
2026-04-26 21:35 60.43476 25.35226 2993 ft 203 kts 314°
2026-04-26 21:35 60.44298 25.32943 2995 ft 207 kts 312°
2026-04-26 21:35 60.45118 25.30503 2981 ft 209 kts 304°
2026-04-26 21:36 60.45379 25.27529 2982 ft 225 kts 269°
2026-04-26 21:36 60.44760 25.24609 3007 ft 228 kts 242°
2026-04-26 21:36 60.43847 25.22021 2975 ft 225 kts 239°
2026-04-26 21:36 60.42865 25.19584 3004 ft 224 kts 235°
2026-04-26 21:37 60.41848 25.17312 2884 ft 213 kts 234°
2026-04-26 21:37 60.40870 25.15162 2568 ft 200 kts 234°
2026-04-26 21:37 60.39987 25.13215 2288 ft 176 kts 236°
2026-04-26 21:37 60.39199 25.11472 2031 ft 157 kts 238°
2026-04-26 21:38 60.38468 25.09843 1836 ft 157 kts 238°
2026-04-26 21:38 60.37737 25.08218 1617 ft 155 kts 239°
2026-04-26 21:38 60.37018 25.06629 1402 ft 152 kts 239°
2026-04-26 21:38 60.36320 25.05085 1196 ft 149 kts 237°
2026-04-26 21:39 60.35619 25.03545 967 ft 145 kts 234°
2026-04-26 21:39 60.34942 25.02087 738 ft 138 kts 234°
2026-04-26 21:39 60.34302 25.00690 580 ft 135 kts 236°
2026-04-26 21:39 60.33680 24.99278 387 ft 134 kts 234°
2026-04-26 21:40 60.33060 24.97909 226 ft 133 kts 232°
2026-04-26 21:40 60.32455 24.96583 169 ft 119 kts 231°
2026-04-26 21:40 60.31982 24.95505 165 ft 87 kts 227°
2026-04-26 21:40 60.31687 24.94867 167 ft 52 kts 226°
2026-04-26 21:41 60.31500 24.94591 166 ft 24 kts 171°
2026-04-26 21:41 60.31435 24.94661 166 ft 0 kts 135°
2026-04-26 21:41 60.31434 24.94663 166 ft 2 kts 135°
2026-04-26 21:42 60.31405 24.94704 166 ft 8 kts 157°
2026-04-26 21:42 60.31337 24.94659 166 ft 13 kts 225°
2026-04-26 21:42 60.31262 24.94502 166 ft 18 kts 228°
2026-04-26 21:42 60.31170 24.94291 166 ft 22 kts 227°
2026-04-26 21:43 60.31063 24.94057 166 ft 20 kts 226°
2026-04-26 21:43 60.30992 24.94062 166 ft 3 kts 113°
2026-04-26 21:43 60.30990 24.94142 166 ft 8 kts 97°
2026-04-26 21:43 60.30956 24.94222 166 ft 5 kts 147°
2026-04-26 21:44 60.30927 24.94256 166 ft 4 kts 150°
2026-04-26 21:44 60.30924 24.94259 166 ft 0 kts 150°